Regional Weather Roundup
Issued by NWS

Home | Current Version | Previous Version | Text Only | Print | Product List | Glossary On
Versions: 1 2 3 4 5 6 7 8 9 10 11 12 13 14 15 16 17 18 19 20 21 22 23 24 25 26 27 28 29 30 31 32 33 34 35 36 37 38 39 40 41 42 43 44 45 46 47 48 49 50
000
ASUS44 KOUN 270010
RWROK

WEATHER ROUNDUP FOR OKLAHOMA
NATIONAL WEATHER SERVICE NORMAN OK
600 PM CST THU FEB 26 2015

NOTE: "FAIR" INDICATES FEW OR NO CLOUDS BELOW 12,000 FEET WITH NO
      SIGNIFICANT WEATHER AND/OR OBSTRUCTIONS TO VISIBILITY.

OKZ001>007-009>012-014-015-017-270100-
NORTHWEST OKLAHOMA AND THE PANHANDLE

CITY           SKY/WX    TMP DP  RH WIND       PRES   REMARKS
GAGE           CLOUDY    24   1  36 NE15      30.36R WCI  11
6HR MIN TEMP:  23; 6HR MAX TEMP:  29;

GUYMON         CLOUDY    23   9  55 NE10      30.31R WCI  12
ENID/WOODRING  MOCLDY    27   1  33 N15G21    30.41S WCI  15
$$

OKZ016-021>023-033>039-044-045-270100-
SOUTHWEST OKLAHOMA

CITY           SKY/WX    TMP DP  RH WIND       PRES   REMARKS
LAWTON/REGL    MOCLDY    30   5  34 N15       30.38R WCI  19
6HR MIN TEMP:  30; 6HR MAX TEMP:  34;

LAWTON/FT SILL MOCLDY    29   5  35 NE15      30.36R WCI  18
FREDERICK      CLOUDY    30   3  31 NE15      30.36R WCI  19
CLINTON        PTCLDY    27   1  32 N17       30.37R WCI  14
HOBART         CLOUDY    27   3  35 NE20      30.38R WCI  13
ALTUS AFB      CLOUDY    30   3  32 NE16      30.37R WCI  18
$$

OKZ018>020-024>031-270100-
CENTRAL OKLAHOMA

CITY           SKY/WX    TMP DP  RH WIND       PRES   REMARKS
OKLAHOMA CITY  MOCLDY    29  -1  27 N15G22    30.37S WCI  18
6HR MIN TEMP:  28; 6HR MAX TEMP:  33;

OKC/WILEY POST CLEAR     28   1  31 N17       30.39S WCI  16
OKC/TINKER AFB PTCLDY    27   1  32 N16       30.37R WCI  15
STILLWATER     CLEAR     27   0  31 N14       30.41R WCI  16
GUTHRIE        CLEAR     27  -1  30 NE8       30.41R WCI  19
$$

OKZ008-013-054>072-270100-
NORTHEAST OKLAHOMA

CITY           SKY/WX    TMP DP  RH WIND       PRES   REMARKS
TULSA          PTCLDY    28   2  32 N14       30.42R WCI  17
6HR MIN TEMP:  25; 6HR MAX TEMP:  32;

TULSA/JONES    CLEAR     28   3  34 NE12      30.42R WCI  18
PONCA CITY     PTCLDY    25  -2  31 N14       30.44R WCI  13
BARTLESVILLE   CLEAR     26   0  32 N14G20    30.45R WCI  14
MUSKOGEE       PTCLDY    28   5  37 N16       30.42R WCI  16
$$

OKZ032-040>043-046>053-073>077-270100-
SOUTH CENTRAL/SOUTHEAST OKLAHOMA

CITY           SKY/WX    TMP DP  RH WIND       PRES   REMARKS
ARDMORE/DWNTWN CLOUDY    32  10  40 NE10      30.37R WCI  24
MCALESTER      MOCLDY    29  11  47 N14G23    30.39R WCI  18
$$



USA.gov is the U.S. government's official web portal to all federal, state and local government web resources and services.